TimeMDT,TemperatureF,Dew PointF,Humidity,Sea Level PressureIn,VisibilityMPH,Wind Direction,Wind SpeedMPH,Gust SpeedMPH,PrecipitationIn,Events,Conditions,WindDirDegrees,DateUTC
12:55 AM,28.0,24.1,85,30.26,10.0,NNE,9.2,-,N/A,,Overcast,30,2014-03-21 06:55:00
1:47 AM,28.0,21.0,75,30.19,10.0,NNE,11.5,-,N/A,,Overcast,20,2014-03-21 07:47:00
1:55 AM,28.0,21.0,75,30.27,10.0,North,9.2,-,N/A,,Overcast,10,2014-03-21 07:55:00
2:55 AM,27.0,19.9,75,30.28,10.0,NNE,16.1,-,0.00,,Overcast,30,2014-03-21 08:55:00
3:55 AM,26.1,19.0,75,30.29,10.0,NNE,13.8,-,0.00,,Overcast,20,2014-03-21 09:55:00
4:55 AM,26.1,18.0,71,30.30,10.0,NNE,15.0,-,N/A,,Overcast,20,2014-03-21 10:55:00
5:55 AM,25.0,17.1,72,30.31,10.0,North,16.1,-,N/A,,Overcast,10,2014-03-21 11:55:00
6:55 AM,23.0,18.0,81,30.32,10.0,North,15.0,-,0.00,,Mostly Cloudy,10,2014-03-21 12:55:00
7:55 AM,24.1,17.1,75,30.32,10.0,NNE,15.0,-,N/A,,Mostly Cloudy,30,2014-03-21 13:55:00
8:09 AM,24.1,17.1,75,30.23,10.0,NNE,15.0,-,N/A,,Overcast,20,2014-03-21 14:09:00
8:55 AM,25.0,17.1,72,30.33,10.0,North,12.7,-,N/A,,Overcast,10,2014-03-21 14:55:00
9:55 AM,26.1,17.1,69,30.33,10.0,NE,15.0,-,N/A,,Overcast,40,2014-03-21 15:55:00
10:55 AM,30.0,18.0,61,30.33,10.0,NE,15.0,-,N/A,,Overcast,40,2014-03-21 16:55:00
11:11 AM,28.9,18.0,64,30.24,10.0,NE,11.5,-,N/A,,Scattered Clouds,40,2014-03-21 17:11:00
11:55 AM,30.0,18.0,61,30.33,10.0,NNE,13.8,-,N/A,,Overcast,30,2014-03-21 17:55:00
12:55 PM,33.1,19.0,56,30.33,10.0,NNE,13.8,-,N/A,,Scattered Clouds,30,2014-03-21 18:55:00
1:55 PM,33.1,19.0,56,30.32,10.0,NE,17.3,-,N/A,,Clear,50,2014-03-21 19:55:00
2:55 PM,35.1,19.0,52,30.30,10.0,NE,19.6,-,N/A,,Clear,40,2014-03-21 20:55:00
3:55 PM,34.0,18.0,52,30.29,10.0,NNE,18.4,-,N/A,,Clear,30,2014-03-21 21:55:00
4:55 PM,34.0,16.0,48,30.28,10.0,NNE,18.4,-,N/A,,Partly Cloudy,20,2014-03-21 22:55:00
5:55 PM,33.1,16.0,50,30.29,10.0,NNE,23.0,-,N/A,,Clear,20,2014-03-21 23:55:00
6:55 PM,30.9,15.1,52,30.31,10.0,NNE,18.4,-,N/A,,Scattered Clouds,20,2014-03-22 00:55:00
7:55 PM,28.0,14.0,56,30.32,10.0,North,15.0,24.2,N/A,,Scattered Clouds,10,2014-03-22 01:55:00
8:55 PM,26.1,12.9,58,30.33,10.0,North,15.0,24.2,N/A,,Scattered Clouds,10,2014-03-22 02:55:00
9:55 PM,25.0,10.9,55,30.34,10.0,NNE,19.6,23.0,N/A,,Partly Cloudy,20,2014-03-22 03:55:00
10:55 PM,23.0,10.9,60,30.35,10.0,North,16.1,-,N/A,,Partly Cloudy,10,2014-03-22 04:55:00
11:55 PM,21.9,10.0,60,30.37,10.0,NNE,19.6,-,N/A,,Scattered Clouds,20,2014-03-22 05:55:00